FW9926 Weather Reports


Display with metric or nautical units.
time (UTC)temp
F
wind
direction
speed
MPH
gust
MPH
rain 1hr
in
rain 24hr
in
rain mn
in
humidity
%
barometer
mb
20260508084549 58 311 1.0 2.0 0.00 0.00 0.00 50 1022.1
20260508083047 58 311 2.0 4.0 0.00 0.00 0.00 54 1022.2
20260508081558 58 311 2.0 4.0 0.00 0.00 0.00 56 1022.4
20260508080048 59 315 3.0 5.0 0.00 0.00 0.00 55 1022.4
20260508074548 59 321 2.0 5.0 0.00 0.00 0.00 52 1022.5
20260508073101 59 317 3.0 6.0 0.00 0.00 0.00 44 1022.5
20260508071555 60 324 3.0 7.0 0.00 0.00 0.00 43 1022.5
20260508070050 60 313 3.0 7.0 0.00 0.00 0.00 40 1022.6
20260508064551 59 317 3.0 7.0 0.00 0.00 0.00 40 1022.7
20260508063049 60 309 3.0 9.0 0.00 0.00 0.00 40 1022.9
20260508061551 60 327 4.0 6.0 0.00 0.00 0.00 40 1022.8
20260508060050 59 308 3.0 5.0 0.00 0.00 0.00 41 1022.8
20260508054548 59 300 3.0 5.0 0.00 0.00 0.00 44 1022.9
20260508053114 59 302 3.0 5.0 0.00 0.00 0.00 48 1022.9
20260508051554 59 310 3.0 5.0 0.00 0.00 0.00 50 1023.1
20260508050049 59 301 3.0 5.0 0.00 0.00 0.00 50 1023.1
20260508044547 59 306 3.0 5.0 0.00 0.00 0.00 52 1023.0
20260508043048 59 300 3.0 5.0 0.00 0.00 0.00 53 1023.1
20260508041611 58 305 3.0 5.0 0.00 0.00 0.00 58 1022.9
20260508040109 58 307 2.0 7.0 0.00 0.00 0.00 67 1022.8
20260508034549 58 311 2.0 4.0 0.00 0.00 0.00 70 1022.7
20260508033047 57 313 2.0 3.0 0.00 0.00 0.00 74 1022.5
20260508031549 58 311 2.0 4.0 0.00 0.00 0.00 74 1022.4
20260508030047 58 313 1.0 3.0 0.00 0.00 0.00 73 1022.5
20260508024603 58 310 2.0 4.0 0.00 0.00 0.00 73 1022.2
20260508023051 59 309 2.0 4.0 0.00 0.00 0.00 72 1022.2
20260508021550 61 308 2.0 5.0 0.00 0.00 0.00 70 1022.0
20260508020053 62 305 2.0 4.0 0.00 0.00 0.00 68 1021.9
20260508014550 62 315 2.0 4.0 0.00 0.00 0.00 65 1022.0
20260508013053 63 335 2.0 5.0 0.00 0.00 0.00 63 1022.0
20260508011556 64 347 3.0 6.0 0.00 0.00 0.00 61 1022.0
20260508010049 65 5 3.0 7.0 0.00 0.00 0.00 58 1022.0
20260508004555 66 338 3.0 9.0 0.00 0.00 0.00 54 1021.8
20260508003103 67 336 3.0 8.0 0.00 0.00 0.00 53 1021.8
20260508001551 68 355 3.0 6.0 0.00 0.00 0.00 49 1021.9
20260508000048 70 301 3.0 6.0 0.00 0.00 0.00 41 1021.8
20260507234550 71 321 3.0 9.0 0.00 0.00 0.00 35 1021.7
20260507233058 71 342 3.0 10.0 0.00 0.00 0.00 30 1021.6
20260507231551 71 297 2.0 9.0 0.00 0.00 0.00 31 1021.6
20260507230050 71 284 3.0 7.0 0.00 0.00 0.00 28 1021.8
20260507224556 72 295 3.0 9.0 0.00 0.00 0.00 31 1021.8
20260507223052 72 350 3.0 8.0 0.00 0.00 0.00 31 1021.8
20260507221552 72 272 5.0 10.0 0.00 0.00 0.00 33 1021.8
20260507220051 72 291 3.0 10.0 0.00 0.00 0.00 31 1022.0
20260507214601 72 308 3.0 9.0 0.00 0.00 0.00 34 1022.4
20260507213102 73 287 3.0 10.0 0.00 0.00 0.00 37 1022.6
20260507211552 72 360 3.0 9.0 0.00 0.00 0.00 35 1022.5
20260507210051 72 11 4.0 10.0 0.00 0.00 0.00 35 1022.7
20260507204553 72 293 3.0 8.0 0.00 0.00 0.00 39 1022.9
20260507203049 72 5 3.0 7.0 0.00 0.00 0.00 39 1022.9
20260507201546 72 281 3.0 10.0 0.00 0.00 0.00 39 1023.0
20260507200051 71 324 2.0 10.0 0.00 0.00 0.00 39 1023.0
20260507194615 71 9 3.0 9.0 0.00 0.00 0.00 39 1023.1
20260507193049 72 9 2.0 8.0 0.00 0.00 0.00 39 1023.2
20260507191551 71 15 3.0 10.0 0.00 0.00 0.00 37 1023.2
20260507190054 71 0 2.0 9.0 0.00 0.00 0.00 40 1023.2
20260507184547 70 10 0.0 5.0 0.00 0.00 0.00 38 1023.6
20260507183054 68 0 1.0 5.0 0.00 0.00 0.00 41 1023.4
20260507181555 71 0 2.0 9.0 0.00 0.00 0.00 33 1023.4
20260507180048 70 17 3.0 8.0 0.00 0.00 0.00 31 1023.5
20260507174557 69 0 1.0 5.0 0.00 0.00 0.00 35 1023.5
20260507173118 69 279 3.0 8.0 0.00 0.00 0.00 38 1023.3
20260507171554 70 0 2.0 8.0 0.00 0.00 0.00 37 1023.4
20260507170110 69 17 2.0 5.0 0.00 0.00 0.00 33 1023.3
20260507164555 68 0 1.0 4.0 0.00 0.00 0.00 36 1023.2
20260507163051 67 0 3.0 5.0 0.00 0.00 0.00 34 1023.3
20260507161603 66 317 2.0 5.0 0.00 0.00 0.00 34 1023.4
20260507160050 65 317 1.0 5.0 0.00 0.00 0.00 35 1023.3
20260507154549 65 319 0.0 0.0 0.00 0.00 0.00 33 1023.2
20260507153059 64 0 0.0 0.0 0.00 0.00 0.00 36 1023.3
20260507151551 63 0 0.0 0.0 0.00 0.00 0.00 38 1023.2
20260507150055 62 0 0.0 0.0 0.00 0.00 0.00 37 1023.2
20260507144551 61 0 0.0 0.0 0.00 0.00 0.00 40 1023.1
20260507143049 60 0 0.0 0.0 0.00 0.00 0.00 40 1023.1
20260507141602 60 0 0.0 0.0 0.00 0.00 0.00 40 1022.9
20260507140053 59 0 0.0 0.0 0.00 0.00 0.00 40 1022.7
20260507134554 59 0 0.0 4.0 0.00 0.00 0.00 41 1022.6
20260507133101 58 360 2.0 5.0 0.00 0.00 0.00 41 1022.7
20260507131550 58 15 2.0 5.0 0.00 0.00 0.00 43 1022.7
20260507130055 57 26 2.0 4.0 0.00 0.00 0.00 45 1022.7
20260507124553 57 22 0.0 2.0 0.00 0.00 0.00 45 1022.6
20260507123050 58 0 0.0 4.0 0.00 0.00 0.00 44 1022.5
20260507121552 58 340 2.0 4.0 0.00 0.00 0.00 43 1022.4
20260507120104 58 346 2.0 5.0 0.00 0.00 0.00 44 1022.5
20260507114558 57 355 2.0 7.0 0.00 0.00 0.00 43 1022.4
20260507113056 57 11 2.0 5.0 0.00 0.00 0.00 47 1022.4
20260507111557 56 350 3.0 5.0 0.00 0.00 0.00 48 1022.4
20260507104605 55 326 3.0 5.0 0.00 0.00 0.00 54 1022.4
20260507103049 55 0 1.0 6.0 0.00 0.00 0.00 59 1022.4
20260507101545 56 337 3.0 7.0 0.00 0.00 0.00 56 1022.3
20260507100047 56 360 3.0 6.0 0.00 0.00 0.00 57 1022.3
20260507094555 55 0 0.0 0.0 0.00 0.00 0.00 61 1022.3
20260507093049 55 0 0.0 0.0 0.00 0.00 0.00 61 1022.3
20260507091552 55 0 0.0 0.0 0.00 0.00 0.00 59 1022.4
20260507090054 55 0 0.0 0.0 0.00 0.00 0.00 55 1022.4